User: anonymous   Login
Location: Radomski Observatory
(40.2854°N, 79.5145°W)
Time: 18:39:41
(UTC-04:00)
Language:

Uosat F - Orbit

View from above orbital plane
View from above orbital plane
View from above satellite
View from above satellite

Ground track
Ground track

The orbit data is extracted from the following two-line orbital elements,

1 21575U 91050B   16145.94115192 +.00000027 +00000-0 +23066-4 0  9994
2 21575 098.7605 146.9382 0007752 024.1585 335.9965 14.40740124305179
Epoch (UTC): 24 May 2016 22:35:15
Eccentricity: 0.0007752
inclination: 98.7605°
perigee height: 750 km
apogee height: 761 km
right ascension of ascending node: 146.9382°
argument of perigee: 24.1585°
revolutions per day: 14.40740124
mean anomaly at epoch: 335.9965°
orbit number at epoch: 30517

The dashed part of the orbit path shows where the satellite is in the earth's shadow,  

DLR